Regional Weather Roundup
Issued by NWS

Home | Current Version | Previous Version | Text Only | Print | Product List | Glossary Off
Versions: 1 2 3 4 5 6 7 8 9 10 11 12 13 14 15 16 17 18 19 20 21 22 23 24 25 26 27

000
ASUS45 KBOU 221707
RWRCO

WEATHER ROUNDUP FOR COLORADO
NATIONAL WEATHER SERVICE DENVER/BOULDER CO
1000 AM MST SUN JAN 22 2017

NOTE: "FAIR" INDICATES FEW OR NO CLOUDS BELOW 12000 FEET WITH NO
SIGNIFICANT WEATHER AND/OR OBSTRUCTIONS TO VISIBILITY.

COZ001>005-013-030-031-221800-
...NORTHWEST COLORADO...

CITY           SKY/WX    TMP DP  RH WIND       PRES   REMARKS
CRAIG          FAIR      10   7  87 CALM      30.08R
HAYDEN         FAIR      16  10  79 E5        30.05R WCI   9
MEEKER         FAIR      17  13  84 VRB3      30.08R
MOUNT WERNER   NOT AVBL
STEAMBOAT SPGS CLOUDY    20  16  83 SW3       30.04R
WALDEN           N/A     18   7  62 SW12      29.98R WCI   5
$$

COZ006>008-011-221800-
...WEST CENTRAL VALLEYS...

CITY           SKY/WX    TMP DP  RH WIND       PRES   REMARKS
GRAND JUNCTION FAIR      33  25  72 SE6       30.13R WCI  28
MONTROSE       FAIR      28  18  66 SE5       30.16R WCI  23
EAGLE          MOSUNNY   27  16  63 CALM      30.11R
RIFLE          FAIR      27  20  75 W3        30.13R
DELTA          FAIR      32  21  64 E5        30.16R WCI  28
NUCLA          FAIR      27  21  80 S3        30.19R
$$

COZ017>023-064>068-221800-
...SOUTHWEST COLORADO...

CITY           SKY/WX    TMP DP  RH WIND       PRES   REMARKS
DURANGO        FAIR      15  13  91 CALM      30.16R
CORTEZ         FAIR      16  15  96 CALM      30.18R
PAGOSA SPRINGS CLOUDY    24  18  77 CALM      30.14R
TELLURIDE      NOT AVBL
WOLF CREEK PAS PTSUNNY    7   5  92 S10G22    30.06R WCI  -8
$$

COZ009-010-012-014-032>034-037-058>063-221800-
...CENTRAL COLORADO...

CITY           SKY/WX    TMP DP  RH WIND       PRES   REMARKS
ASPEN          FAIR      23  13  65 CALM      30.05R
BUENA VISTA    FAIR      26   6  43 W16G23    29.98R WCI  13
COPPER MTN     NOT AVBL
BERTHOUD PASS  NOT AVBL
COTTONWOOD PAS FAIR      23   1  39 W13G28    29.92R WCI  11
GUNNISON       FAIR      12   5  73 NE3       30.12R
KREMMLING      PTSUNNY   21  12  68 CALM      30.06R
LEADVILLE      PTSUNNY   16   3  56 N10G20    29.97R WCI   4
MONARCH PASS   CLOUDY     5   3  92 W6        30.05R WCI  -6
SALIDA         FAIR      31   7  36 NW6G21    30.07R WCI  25
SUNLIGHT       CLOUDY   N/A N/A N/A MISG      30.04R
WILKERSON PASS FAIR      12   0  57 W8        29.94R WCI   1
$$

COZ069>075-221800-
...SAN LUIS VALLEY/SANGRE DE CRISTO MOUNTAINS...

CITY           SKY/WX    TMP DP  RH WIND       PRES   REMARKS
ALAMOSA        FAIR      12  10  92 S3        30.07R
LA VETA PASS   FAIR      18  12  79 NE25G38   29.95R HAZE    WCI  -1
SAGUACHE       FAIR      27  10  50 NW15      30.05R WCI  15
$$

COZ035-036-038>040-221800-
...NORTHERN COLORADO FRONT RANGE...

CITY           SKY/WX    TMP DP  RH WIND       PRES   REMARKS
DENVER INTL AP FAIR      39  14  36 SW3       29.94R
DMNS CITY PARK   N/A     42   5  21 W8        29.94S
AURORA         MOSUNNY   37  12  35 W8        29.96R
FRONT RANGE AP MOSUNNY   37  19  48 W9        29.95R
ERIE MUNI ARPT FAIR      42   9  25 W10G16    29.94R
BOULDER MUN AP FAIR      41   9  26 W12G17    29.93R
CENTENNIAL     FAIR      36   9  32 NW13      29.95R
BROOMFIELD     MOSUNNY   39   9  28 W24G30    29.93S
FORT COLLINS   FAIR      39  18  41 S6        29.93R
LONGMONT       FAIR      45   9  22 SW3       29.94S
$$

COZ041-046-047-076>085-087-088-221800-
...PIKES PEAK/PALMER DIVIDE AND SOUTHERN FOOTHILLS...

CITY           SKY/WX    TMP DP  RH WIND       PRES   REMARKS
COLO. SPRINGS  FAIR      40   0  18 NW15G23   29.94R
A. F. ACADEMY  FAIR      38  -1  19 NW9G20    29.92R
SCHRIEVER AFB  NOT AVBL
ELLICOTT       FAIR     N/A N/A N/A N13       29.93R
FALCON         FAIR      37   2  23 NW12      29.94R
FORT CARSON    NOT AVBL
LIMON          FAIR      37  22  54 N13       29.94R
MONUMENT HILL  FAIR      32   9  37 NW14      29.95R WCI  22
TRINIDAD       FAIR      37  15  40 NW9       29.98R
$$

COZ042>045-048>051-090-091-221800-
...NORTHEAST COLORADO...

CITY           SKY/WX    TMP DP  RH WIND       PRES   REMARKS
GREELEY ARPT   FAIR      38  17  42 NW5       29.94R
AKRON          FAIR      38  21  50 NW12      29.92R
BURLINGTON     FAIR      40  26  57 NW18G28   29.92R
WRAY           NOT AVBL
STERLING       FAIR      41  23  48 NW21      29.91R
HOLYOKE        FAIR      41  27  56 NW17      29.92R
FORT MORGAN    FAIR      41  15  35 NW20G28   29.94R
$$

COZ086-089-092>099-221800-
...SOUTHEAST COLORADO...

CITY           SKY/WX    TMP DP  RH WIND       PRES   REMARKS
PUEBLO         FAIR      44  14  29 W14       29.96R
LA JUNTA       FAIR      35  27  72 W12       29.96R WCI  27
LAMAR          FAIR      39  29  67 W7        29.93R
SPRINGFIELD      N/A     44  28  53 NW16      29.93R
$$




USA.gov is the U.S. government's official web portal to all federal, state and local government web resources and services.